Home > Weather > Langfang > Past weeks

Flag for China Past Weather in Langfang, Hebei, China — Yesterday and Last 2 Weeks

Now
88 °F

Haze.


Feels Like: 102 °F
Forecast: 77 / 93 °F
Wind: 6 mph from Southeast

Location: Beijing Airport

Current Time: Jul 29, 2016 at 6:25:43 PM

Latest Report: Jul 29, 2016 at 6:00 PM


Visibility: 3 mi

Pressure: 29.65 "Hg

Humidity: 75%

Dew Point: 79 °F

Location of LangfangLocation

Past Weather in Langfang — Graph

°F

Langfang Temperature Yesterday

Maximum temperature yesterday: 91 °F (at 1:30 PM)
Minimum temperature yesterday: 72 °F (at 2:30 AM)
Average temperature yesterday: 82 °F

High & Low Weather Summary for the Past Weeks

 TemperatureHumidityPressure
High95 °F (Jul 27, 2:00 PM)100% (Jul 21, 5:30 AM)29.77 "Hg (Jul 21, 5:30 AM)
Low70 °F (Jul 15, 3:30 AM)34% (Jul 26, 5:30 PM)29.47 "Hg (Jul 20, 3:30 PM)
Average79 °F79%29.63 "Hg
* Reported Jul 14 5:00 PM — Jul 29 5:00 PM, Langfang, Weather by CustomWeather, © 2016

Note: Actual official high and low records may vary slightly from our data, if they occured in-between our weather recording intervals... More about our weather records

Advertising

Langfang Weather History for the Previous 24 Hours

Scroll right to see more
 ConditionsComfort  
Time TempWeatherWind HumidityBarometerVisibility
5:00 PM
Fri, Jul 29
90 °FHaze.6 mph71%29.65 "Hg3 mi
4:30 PM90 °FHaze.3 mph71%29.65 "Hg3 mi
4:00 PM91 °FHaze.6 mph67%29.65 "Hg3 mi
3:30 PM91 °FHaze.8 mph67%29.65 "Hg3 mi
3:00 PM91 °FHaze.3 mph67%29.65 "Hg3 mi
2:30 PM91 °FHaze.3 mph63%29.68 "Hg3 mi
2:00 PM90 °FHaze.3 mph67%29.68 "Hg3 mi
1:30 PM90 °FHaze.3 mph67%29.68 "Hg3 mi
1:00 PM90 °FHaze.3 mph67%29.68 "Hg3 mi
12:30 PM90 °FHaze.1 mph63%29.68 "Hg3 mi
12:00 PM88 °FScattered clouds.3 mph70%29.68 "Hg3 mi
11:30 AM88 °FScattered clouds.1 mph70%29.68 "Hg4 mi
11:00 AM86 °FScattered clouds.1 mph70%29.71 "Hg5 mi
10:30 AM82 °FScattered clouds.3 mph74%29.71 "Hg5 mi
10:00 AM82 °FPassing clouds.1 mph74%29.71 "Hg5 mi
9:30 AM82 °FPassing clouds.1 mph74%29.71 "Hg4 mi
9:00 AM82 °FPassing clouds.3 mph74%29.68 "Hg4 mi
8:30 AM81 °FClear.3 mph79%29.68 "Hg4 mi
8:00 AM82 °FClear.No wind79%29.68 "Hg4 mi
7:30 AM81 °FClear.1 mph84%29.68 "Hg4 mi
7:00 AM79 °FClear.No wind84%29.65 "Hg4 mi
6:30 AM79 °FFog.1 mph84%29.65 "Hg3 mi
6:00 AM79 °FFog.1 mph84%29.62 "Hg2 mi
5:30 AM79 °FFog.3 mph84%29.62 "Hg3 mi
5:00 AM79 °FFog.1 mph84%29.62 "Hg3 mi
4:30 AM77 °FFog.3 mph94%29.59 "Hg2 mi
4:00 AM77 °FFog.1 mph94%29.59 "Hg2 mi
3:30 AM79 °FFog.3 mph94%29.59 "Hg2 mi
3:00 AM79 °FFog.3 mph94%29.59 "Hg2 mi
2:30 AM79 °FFog.1 mph94%29.59 "Hg2 mi
2:00 AM79 °FFog.1 mph94%29.59 "Hg2 mi
1:30 AM79 °FFog.1 mph100%29.59 "Hg2 mi
1:00 AM81 °FFog.1 mph94%29.59 "Hg2 mi
12:30 AM81 °FFog.1 mph94%29.59 "Hg2 mi
12:00 AM81 °FFog.1 mph94%29.59 "Hg3 mi
11:30 PM
Thu, Jul 28
81 °FClear.1 mph89%29.59 "Hg4 mi
11:00 PM81 °FClear.1 mph89%29.62 "Hg4 mi
10:30 PM81 °FClear.1 mph94%29.59 "Hg4 mi
10:00 PM81 °FClear.1 mph89%29.59 "Hg5 mi
9:30 PM81 °FClear.No wind89%29.59 "Hg5 mi
9:00 PM82 °FClear.1 mph84%29.59 "Hg10 mi
8:30 PM82 °FClear.1 mph84%29.56 "Hg10 mi
8:00 PM84 °FClear.1 mph79%29.56 "Hg10 mi
7:30 PM88 °FPassing clouds.3 mph66%29.56 "HgN/A
7:00 PM86 °FPassing clouds.3 mph75%29.53 "HgN/A
6:30 PM88 °FPassing clouds.3 mph66%29.53 "HgN/A
6:00 PM88 °FPassing clouds.3 mph66%29.53 "HgN/A
Weather by CustomWeather, © 2016

See weather overviewHow to use our weather pages